Regional Weather Roundup
Issued by NWS

Home | Current Version | Previous Version | Graphics & Text | Print | Product List | Glossary On
Versions: 1 2 3 4 5 6 7 8 9 10 11 12 13 14 15 16 17 18 19 20 21 22 23 24 25 26 27 28 29 30 31 32 33 34 35 36 37 38 39 40 41 42 43 44 45 46 47 48 49 50
633
ASUS44 KLIX 172110
RWRLA
LOUISIANA WEATHER ROUNDUP
NATIONAL WEATHER SERVICE NEW ORLEANS LA
400 PM CDT THU APR 17 2014

NOTE: "FAIR" INDICATES FEW OR NO CLOUDS BELOW 12,000 FEET WITH NO
      SIGNIFICANT WEATHER AND/OR OBSTRUCTIONS TO VISIBILITY.
      SKY/WX - SKY CONDITION AND SIGNIFICANT WEATHER.
      TMP - AIR TEMPERATURE.    DP   - DEWPOINT TEMPERATURE.
      RH  - RELATIVE HUMIDITY.  PRES - PRESSURE.
      HX  - HEAT INDEX.         WCI  - WIND CHILL INDEX.

*  THESE STATIONS ARE NOT NWS OR FAA STATIONS AND ARE NOT UNDER
   NWS QUALITY CONTROL.

LAZ040-048-061>063-065-066-069-172200-
SOUTHEAST LOUISIANA

CITY           SKY/WX    TMP DP  RH WIND       PRES   REMARKS
N.O. AUDUBON     N/A     66  32  28 MISG        N/A
N.O. INTL ARPT CLOUDY    65  59  81 E10       30.14S
N.O. LAKEFRONT CLOUDY    63  60  90 E13       30.15S
N.O. DOWNTOWN* CLOUDY    63  55  77 E8        30.15S
SLIDELL        CLOUDY    65  58  78 E5        30.15F
BATON ROUGE    CLOUDY    67  56  67 NE8       30.13F
BOOTHVILLE     LGT RAIN  64  62  93 E6        30.14S FOG
BELLE CHASSE   CLOUDY    65  58  78 E7        30.13F
BOGALUSA*        N/A     67  56  67 E6        30.17F
GALLIANO*      CLOUDY    67  62  84 NE7       30.12F
NEW ROADS*     FAIR      65  54  69 E6        30.13F
GONZALES*      CLOUDY    65  60  85 E8        30.14R
HAMMOND*       CLOUDY    66  57  72 E7        30.16F
HOUMA*         CLOUDY    66  59  77 NE9       30.14R HAZE
PORT FOURCHON* MOCLDY    66  63  88 E10       30.13F FOG

$$

LAZ041-044-053-054-172200-
SOUTHWEST LOUISIANA

CITY           SKY/WX    TMP DP  RH WIND       PRES   REMARKS
LAKE CHARLES   CLOUDY    64  53  67 NE9       30.11F
LAFAYETTE      CLOUDY    64  55  72 E6        30.11F
PATTERSON      CLOUDY    63  57  82 E13         N/A
SALT POINT       N/A     66  59  78 VRB3      30.09F
NEW IBERIA     CLOUDY    65  55  70 NE9       30.10F
CHENAULT AIRPK CLOUDY    64  54  68 NE7       30.13F

$$

LAZ027-028-172200-
CENTRAL LOUISIANA

CITY           SKY/WX    TMP DP  RH WIND       PRES   REMARKS
FORT POLK      CLOUDY    60  53  77 NE5       30.14S
ALEXANDRIA INT CLOUDY    62  54  74 NE3       30.12F
ALEXANDRIA     CLOUDY    65  52  62 E5        30.12F

$$

LAZ001-002-172200-
NORTHWEST LOUISIANA

CITY           SKY/WX    TMP DP  RH WIND       PRES   REMARKS
SHREVEPORT     PTSUNNY   68  47  46 E8        30.14F
BARKSDALE AFB  CLOUDY    65  46  50 NE6       30.15F
DTN SHREVEPORT CLOUDY    64  46  52 NE6       30.15F

$$

LAZ014-016-172200-
NORTHEAST LOUISIANA

CITY           SKY/WX    TMP DP  RH WIND       PRES   REMARKS
MONROE         CLOUDY    65  50  58 VRB3      30.18F
TALLULAH       CLOUDY    67  52  58 E6        30.17F

$$




USA.gov is the U.S. government's official web portal to all federal, state and local government web resources and services.